When you browse on this site, cookies collect data to enhance your experience and personalize the content and advertising you see.
Visit our Privacy Policy to learn more. By continuing to use the site, you agree to this use of cookies and data.
  • In Lithuania
  • List of Countries
  • For 7 days
  • Water Temperature
  • Weather Map
  • Weather Widgets
  • user-avatar
    Login

    Hourly Weather Barra

    Today, 16 September, Monday

    Time Temperature Precipitation Wind Pressure Humidity
    00:00 +18°C° 0 mm 3 mps 754 mmHg 86%
    01:00 +17°C° 0 mm 3 mps 753 mmHg 86%
    02:00 +17°C° 0 mm 3 mps 753 mmHg 87%
    03:00 +17°C° 0 mm 3 mps 753 mmHg 87%
    04:00 +18°C° 0 mm 3 mps 753 mmHg 85%
    05:00 +18°C° 0.1 mm 3 mps 754 mmHg 83%
    06:00 +19°C° 0.1 mm 3 mps 754 mmHg 80%
    07:00 +20°C° 0.1 mm 3 mps 754 mmHg 78%
    08:00 +21°C° 0 mm 3 mps 754 mmHg 70%
    09:00 +22°C° 0 mm 4 mps 754 mmHg 63%
    10:00 +25°C° 0 mm 4 mps 754 mmHg 58%
    11:00 +25°C° 0.1 mm 4 mps 754 mmHg 56%
    12:00 +26°C° 0.1 mm 4 mps 753 mmHg 55%
    13:00 +26°C° 0.1 mm 4 mps 752 mmHg 53%
    14:00 +26°C° 0 mm 4 mps 752 mmHg 54%
    15:00 +26°C° 0 mm 3 mps 752 mmHg 56%
    16:00 +25°C° 0 mm 3 mps 752 mmHg 58%
    17:00 +22°C° 0 mm 3 mps 752 mmHg 66%
    18:00 +21°C° 0 mm 3 mps 752 mmHg 75%
    19:00 +19°C° 0 mm 3 mps 752 mmHg 84%
    20:00 +18°C° 0 mm 2 mps 753 mmHg 86%
    21:00 +18°C° 0 mm 2 mps 753 mmHg 88%
    22:00 +18°C° 0 mm 2 mps 754 mmHg 91%
    23:00 +17°C° 0 mm 2 mps 753 mmHg 91%

    Tomorrow, 17 September, Tuesday

    Time Temperature Precipitation Wind Pressure Humidity
    00:00 +17°C° 0 mm 2 mps 753 mmHg 92%
    01:00 +17°C° 0 mm 2 mps 752 mmHg 92%
    02:00 +17°C° 0 mm 2 mps 752 mmHg 92%
    03:00 +17°C° 0 mm 2 mps 752 mmHg 92%
    04:00 +17°C° 0 mm 2 mps 752 mmHg 92%
    05:00 +17°C° 0 mm 2 mps 752 mmHg 91%
    06:00 +17°C° 0 mm 2 mps 752 mmHg 90%
    07:00 +17°C° 0 mm 2 mps 753 mmHg 89%
    08:00 +20°C° 0 mm 2 mps 753 mmHg 75%
    09:00 +24°C° 0 mm 2 mps 753 mmHg 61%
    10:00 +26°C° 0 mm 2 mps 753 mmHg 47%
    11:00 +27°C° 0 mm 2 mps 753 mmHg 45%
    12:00 +27°C° 0 mm 2 mps 752 mmHg 44%
    13:00 +27°C° 0 mm 3 mps 751 mmHg 42%
    14:00 +27°C° 0 mm 3 mps 751 mmHg 43%
    15:00 +27°C° 0 mm 3 mps 751 mmHg 44%
    16:00 +26°C° 0 mm 3 mps 751 mmHg 44%
    17:00 +24°C° 0 mm 2 mps 751 mmHg 54%
    18:00 +21°C° 0 mm 2 mps 751 mmHg 63%
    19:00 +19°C° 0 mm 1 mps 752 mmHg 72%
    20:00 +19°C° 0 mm 1 mps 752 mmHg 75%
    21:00 +18°C° 0 mm 1 mps 753 mmHg 78%
    22:00 +18°C° 0 mm 1 mps 754 mmHg 80%
    23:00 +16°C° 0 mm 1 mps 753 mmHg 82%

    Day after tomorrow, 18 September, Wednesday

    Time Temperature Precipitation Wind Pressure Humidity
    00:00 +16°C° 0 mm 1 mps 753 mmHg 84%
    01:00 +15°C° 0 mm 1 mps 753 mmHg 86%
    02:00 +15°C° 0 mm 1 mps 753 mmHg 86%
    03:00 +15°C° 0 mm 1 mps 752 mmHg 87%
    04:00 +15°C° 0 mm 1 mps 752 mmHg 87%
    05:00 +15°C° 0 mm 2 mps 753 mmHg 85%
    06:00 +16°C° 0 mm 2 mps 753 mmHg 82%
    07:00 +16°C° 0 mm 2 mps 753 mmHg 80%
    08:00 +20°C° 0 mm 2 mps 753 mmHg 66%
    09:00 +24°C° 0 mm 1 mps 753 mmHg 52%
    10:00 +28°C° 0 mm 1 mps 753 mmHg 38%
    11:00 +28°C° 0 mm 2 mps 753 mmHg 37%
    12:00 +28°C° 0 mm 2 mps 752 mmHg 37%
    13:00 +29°C° 0 mm 3 mps 751 mmHg 37%
    14:00 +28°C° 0 mm 3 mps 751 mmHg 39%
    15:00 +27°C° 0 mm 3 mps 751 mmHg 42%
    16:00 +27°C° 0 mm 2 mps 751 mmHg 44%
    17:00 +24°C° 0 mm 2 mps 751 mmHg 56%
    18:00 +22°C° 0 mm 1 mps 751 mmHg 68%
    19:00 +19°C° 0 mm 1 mps 752 mmHg 80%
    20:00 +18°C° 0 mm 1 mps 752 mmHg 83%
    21:00 +18°C° 0 mm 1 mps 753 mmHg 86%
    22:00 +16°C° 0 mm 1 mps 753 mmHg 89%
    23:00 +16°C° 0 mm 1 mps 752 mmHg 90%

    19 September, Thursday

    Time Temperature Precipitation Wind Pressure Humidity
    00:00 +16°C° 0 mm 1 mps 752 mmHg 90%
    01:00 +15°C° 0 mm 1 mps 752 mmHg 91%
    02:00 +15°C° 0 mm 1 mps 752 mmHg 91%
    03:00 +15°C° 0 mm 1 mps 752 mmHg 91%
    04:00 +15°C° 0 mm 1 mps 752 mmHg 92%
    05:00 +16°C° 0 mm 1 mps 752 mmHg 89%
    06:00 +16°C° 0 mm 1 mps 752 mmHg 87%
    07:00 +18°C° 0 mm 1 mps 753 mmHg 84%
    08:00 +21°C° 0 mm 1 mps 753 mmHg 73%
    09:00 +24°C° 0 mm 1 mps 753 mmHg 62%
    10:00 +27°C° 0 mm 1 mps 753 mmHg 50%
    11:00 +27°C° 0 mm 2 mps 752 mmHg 50%
    12:00 +28°C° 0 mm 2 mps 751 mmHg 50%
    13:00 +28°C° 0 mm 3 mps 751 mmHg 49%
    14:00 +27°C° 0 mm 3 mps 750 mmHg 52%
    15:00 +27°C° 0 mm 3 mps 750 mmHg 54%
    16:00 +26°C° 0 mm 3 mps 750 mmHg 56%
    17:00 +24°C° 0 mm 2 mps 750 mmHg 66%
    18:00 +21°C° 0 mm 2 mps 751 mmHg 77%
    19:00 +19°C° 0 mm 2 mps 751 mmHg 87%
    20:00 +19°C° 0 mm 2 mps 751 mmHg 88%
    21:00 +19°C° 0 mm 2 mps 752 mmHg 90%
    22:00 +18°C° 0 mm 2 mps 752 mmHg 91%
    23:00 +18°C° 0 mm 2 mps 752 mmHg 91%

    20 September, Friday

    Time Temperature Precipitation Wind Pressure Humidity
    00:00 +18°C° 0 mm 2 mps 751 mmHg 90%
    01:00 +18°C° 0 mm 2 mps 751 mmHg 90%
    02:00 +19°C° 0 mm 2 mps 751 mmHg 88%
    03:00 +19°C° 0 mm 3 mps 751 mmHg 87%
    04:00 +19°C° 0 mm 3 mps 751 mmHg 85%
    05:00 +19°C° 0 mm 3 mps 751 mmHg 84%
    06:00 +20°C° 0 mm 3 mps 752 mmHg 82%
    07:00 +20°C° 0 mm 3 mps 752 mmHg 81%
    08:00 +22°C° 0 mm 3 mps 752 mmHg 72%
    09:00 +25°C° 0 mm 4 mps 752 mmHg 64%
    10:00 +26°C° 0 mm 4 mps 752 mmHg 56%
    11:00 +27°C° 0 mm 4 mps 752 mmHg 54%
    12:00 +27°C° 0 mm 4 mps 751 mmHg 52%
    13:00 +28°C° 0 mm 4 mps 751 mmHg 50%
    14:00 +27°C° 0 mm 4 mps 750 mmHg 52%
    15:00 +27°C° 0 mm 4 mps 750 mmHg 55%
    16:00 +26°C° 0 mm 4 mps 750 mmHg 58%
    17:00 +23°C° 0 mm 4 mps 750 mmHg 68%
    18:00 +21°C° 0 mm 3 mps 751 mmHg 77%
    19:00 +20°C° 0 mm 3 mps 751 mmHg 87%
    20:00 +19°C° 0.1 mm 3 mps 752 mmHg 88%
    21:00 +19°C° 0.1 mm 3 mps 752 mmHg 90%
    22:00 +19°C° 0.1 mm 3 mps 752 mmHg 91%
    23:00 +18°C° 0 mm 3 mps 752 mmHg 91%

    21 September, Saturday

    Time Temperature Precipitation Wind Pressure Humidity
    00:00 +18°C° 0 mm 3 mps 752 mmHg 91%
    01:00 +18°C° 0 mm 2 mps 751 mmHg 92%
    02:00 +18°C° 0 mm 2 mps 751 mmHg 92%
    03:00 +17°C° 0 mm 2 mps 751 mmHg 93%
    04:00 +17°C° 0 mm 2 mps 751 mmHg 93%
    05:00 +18°C° 0 mm 2 mps 751 mmHg 92%
    06:00 +18°C° 0 mm 2 mps 752 mmHg 91%
    07:00 +19°C° 0 mm 3 mps 752 mmHg 90%
    08:00 +20°C° 0.1 mm 3 mps 752 mmHg 85%
    09:00 +22°C° 0.1 mm 4 mps 752 mmHg 81%
    10:00 +23°C° 0.1 mm 4 mps 752 mmHg 76%
    11:00 +25°C° 0.2 mm 4 mps 751 mmHg 72%
    12:00 +26°C° 0.2 mm 5 mps 751 mmHg 69%
    13:00 +26°C° 0.2 mm 5 mps 750 mmHg 65%
    14:00 +26°C° 0.1 mm 5 mps 750 mmHg 66%
    15:00 +26°C° 0.1 mm 5 mps 750 mmHg 67%
    16:00 +25°C° 0.1 mm 4 mps 750 mmHg 68%
    17:00 +23°C° 0 mm 4 mps 750 mmHg 76%
    18:00 +21°C° 0 mm 3 mps 751 mmHg 83%
    19:00 +20°C° 0 mm 3 mps 751 mmHg 91%
    20:00 +19°C° 0 mm 3 mps 752 mmHg 91%
    21:00 +19°C° 0 mm 3 mps 752 mmHg 92%
    22:00 +19°C° 0 mm 2 mps 753 mmHg 93%
    23:00 +19°C° 0.1 mm 3 mps 752 mmHg 93%
    Show more